| time (UTC) | temp F | wind direction | speed MPH | gust MPH | rain 1hr in | rain 24hr in | rain mn in | humidity % | barometer mb |
| 20260503191009 | 60 | 276 | 6.0 | 17.0 | 0.00 | 0.00 | 0.00 | 1 | 1013.1 |
| 20260503190510 | 60 | 186 | 7.0 | 16.0 | 0.00 | 0.00 | 0.00 | 1 | 1013.2 |
| 20260503190010 | 60 | 175 | 9.0 | 14.0 | 0.00 | 0.00 | 0.00 | 1 | 1013.2 |
| 20260503185510 | 59 | 193 | 7.0 | 14.0 | 0.00 | 0.00 | 0.00 | 1 | 1013.3 |
| 20260503185009 | 59 | 180 | 9.0 | 14.0 | 0.00 | 0.00 | 0.00 | 1 | 1013.2 |
| 20260503184509 | 59 | 179 | 7.0 | 14.0 | 0.00 | 0.00 | 0.00 | 1 | 1013.2 |
| 20260503184008 | 59 | 207 | 7.0 | 14.0 | 0.00 | 0.00 | 0.00 | 1 | 1013.1 |
| 20260503183509 | 59 | 135 | 3.0 | 14.0 | 0.00 | 0.00 | 0.00 | 1 | 1013.2 |
| 20260503183007 | 58 | 175 | 7.0 | 14.0 | 0.00 | 0.00 | 0.00 | 1 | 1013.1 |
| 20260503182751 | 58 | 207 | 6.0 | 14.0 | 0.00 | 0.00 | 0.00 | 1 | 1013.1 |
| 20260503182255 | 58 | 227 | 6.0 | 11.0 | 0.00 | 0.00 | 0.00 | 1 | 1013.1 |
| 20260503181507 | 58 | 274 | 4.0 | 18.0 | 0.00 | 0.00 | 0.00 | 1 | 1013.1 |
| 20260503181007 | 58 | 13 | 4.0 | 18.0 | 0.00 | 0.00 | 0.00 | 1 | 1013.0 |
| 20260503180750 | 57 | 244 | 7.0 | 16.0 | 0.00 | 0.00 | 0.00 | 1 | 1013.1 |
| 20260503180252 | 57 | 276 | 3.0 | 12.0 | 0.00 | 0.00 | 0.00 | 1 | 1012.9 |
| 20260503175508 | 56 | 113 | 4.0 | 13.0 | 0.00 | 0.00 | 0.00 | 1 | 1012.9 |
| 20260503175007 | 55 | 296 | 3.0 | 15.0 | 0.00 | 0.00 | 0.00 | 1 | 1013.0 |
| 20260503174506 | 55 | 0 | 8.0 | 18.0 | 0.00 | 0.00 | 0.00 | 1 | 1013.0 |
| 20260503174255 | 56 | 0 | 5.0 | 18.0 | 0.00 | 0.00 | 0.00 | 1 | 1013.0 |
| 20260503173507 | 56 | 357 | 4.0 | 17.0 | 0.00 | 0.00 | 0.00 | 1 | 1013.0 |
| 20260503173007 | 55 | 0 | 5.0 | 15.0 | 0.00 | 0.00 | 0.00 | 1 | 1013.0 |
| 20260503172507 | 55 | 203 | 7.0 | 15.0 | 0.00 | 0.00 | 0.00 | 1 | 1013.0 |
| 20260503172006 | 55 | 0 | 11.0 | 15.0 | 0.00 | 0.00 | 0.00 | 1 | 1013.0 |
| 20260503171506 | 55 | 231 | 7.0 | 12.0 | 0.00 | 0.00 | 0.00 | 1 | 1013.0 |
| 20260503171248 | 55 | 214 | 8.0 | 13.0 | 0.00 | 0.00 | 0.00 | 1 | 1012.9 |
| 20260503170506 | 55 | 195 | 7.0 | 13.0 | 0.00 | 0.00 | 0.00 | 1 | 1013.0 |
| 20260503150503 | 52 | 244 | 4.0 | 7.0 | 0.00 | 0.00 | 0.00 | 1 | 1012.3 |
| 20260503130959 | 52 | 230 | 4.0 | 11.0 | 0.00 | 0.00 | 0.00 | 1 | 1010.9 |
| 20260503130459 | 51 | 269 | 6.0 | 11.0 | 0.00 | 0.00 | 0.00 | 1 | 1010.8 |
| 20260503110458 | 52 | 345 | 3.0 | 13.0 | 0.00 | 0.00 | 0.00 | 1 | 1010.9 |
| 20260503090455 | 52 | 14 | 5.0 | 19.0 | 0.00 | 0.00 | 0.00 | 1 | 1011.2 |
| 20260503081454 | 52 | 32 | 4.0 | 14.0 | 0.00 | 0.00 | 0.00 | 1 | 1011.7 |
| 20260503080954 | 52 | 298 | 4.0 | 15.0 | 0.00 | 0.00 | 0.00 | 1 | 1011.7 |
| 20260503080453 | 51 | 282 | 4.0 | 17.0 | 0.00 | 0.00 | 0.00 | 1 | 1011.8 |
| 20260503072453 | 52 | 278 | 5.0 | 16.0 | 0.00 | 0.00 | 0.00 | 1 | 1011.6 |
| 20260503071951 | 52 | 127 | 5.0 | 16.0 | 0.00 | 0.00 | 0.00 | 1 | 1011.6 |
| 20260503071452 | 52 | 252 | 5.0 | 15.0 | 0.00 | 0.00 | 0.00 | 1 | 1011.6 |
| 20260503070951 | 52 | 281 | 4.0 | 18.0 | 0.00 | 0.00 | 0.00 | 1 | 1011.7 |
| 20260503070452 | 52 | 261 | 5.0 | 18.0 | 0.00 | 0.00 | 0.00 | 1 | 1011.7 |
| 20260503054949 | 52 | 320 | 4.0 | 19.0 | 0.00 | 0.00 | 0.00 | 1 | 1012.0 |
| 20260503054449 | 52 | 345 | 6.0 | 19.0 | 0.00 | 0.00 | 0.00 | 1 | 1011.9 |
| 20260503053948 | 52 | 109 | 4.0 | 15.0 | 0.00 | 0.00 | 0.00 | 1 | 1012.0 |
| 20260503053450 | 52 | 63 | 5.0 | 20.0 | 0.00 | 0.00 | 0.00 | 1 | 1012.2 |
| 20260503053234 | 52 | 274 | 9.0 | 24.0 | 0.00 | 0.00 | 0.00 | 1 | 1012.1 |
| 20260503052528 | 52 | 271 | 7.0 | 26.0 | 0.00 | 0.00 | 0.00 | 1 | 1012.1 |
| 20260503052515 | 52 | 269 | 9.0 | 24.0 | 0.00 | 0.00 | 0.00 | 1 | 1012.1 |
| 20260503051449 | 52 | 350 | 8.0 | 26.0 | 0.00 | 0.00 | 0.00 | 1 | 1012.1 |
| 20260503050949 | 52 | 275 | 10.0 | 21.0 | 0.00 | 0.00 | 0.00 | 1 | 1011.9 |
| 20260503050449 | 52 | 52 | 7.0 | 20.0 | 0.00 | 0.00 | 0.00 | 1 | 1012.0 |
| 20260503045949 | 52 | 250 | 5.0 | 23.0 | 0.00 | 0.00 | 0.00 | 1 | 1012.1 |
| 20260503045734 | 52 | 135 | 4.0 | 23.0 | 0.00 | 0.00 | 0.00 | 1 | 1012.0 |
| 20260503044949 | 52 | 338 | 8.0 | 19.0 | 0.00 | 0.00 | 0.00 | 1 | 1012.1 |
| 20260503044447 | 52 | 69 | 8.0 | 19.0 | 0.00 | 0.00 | 0.00 | 1 | 1012.0 |
| 20260503043948 | 52 | 264 | 7.0 | 19.0 | 0.00 | 0.00 | 0.00 | 1 | 1012.0 |
| 20260503043447 | 52 | 0 | 9.0 | 24.0 | 0.00 | 0.00 | 0.00 | 1 | 1012.0 |
| 20260503042948 | 52 | 0 | 11.0 | 24.0 | 0.00 | 0.00 | 0.00 | 1 | 1011.8 |
| 20260503042447 | 52 | 355 | 6.0 | 21.0 | 0.00 | 0.00 | 0.00 | 1 | 1011.9 |
| 20260503041948 | 52 | 326 | 8.0 | 21.0 | 0.00 | 0.00 | 0.00 | 1 | 1011.9 |
| 20260503041534 | 52 | 305 | 7.0 | 20.0 | 0.00 | 0.00 | 0.00 | 1 | 1011.9 |
| 20260503041517 | 52 | 305 | 5.0 | 20.0 | 0.00 | 0.00 | 0.00 | 1 | 1011.9 |
| 20260503040448 | 52 | 358 | 5.0 | 18.0 | 0.00 | 0.00 | 0.00 | 1 | 1011.9 |
| 20260503035948 | 52 | 207 | 8.0 | 18.0 | 0.00 | 0.00 | 0.00 | 1 | 1011.8 |
| 20260503035448 | 52 | 38 | 6.0 | 19.0 | 0.00 | 0.00 | 0.00 | 1 | 1011.8 |
| 20260503034948 | 52 | 285 | 5.0 | 19.0 | 0.00 | 0.00 | 0.00 | 1 | 1011.9 |
| 20260503034448 | 52 | 334 | 3.0 | 19.0 | 0.00 | 0.00 | 0.00 | 1 | 1011.8 |
| 20260503033947 | 52 | 269 | 7.0 | 21.0 | 0.00 | 0.00 | 0.00 | 1 | 1011.8 |
| 20260503033448 | 52 | 257 | 9.0 | 23.0 | 0.00 | 0.00 | 0.00 | 1 | 1011.7 |
| 20260503032947 | 52 | 10 | 7.0 | 24.0 | 0.00 | 0.00 | 0.00 | 1 | 1011.5 |
| 20260503032732 | 52 | 258 | 12.0 | 24.0 | 0.00 | 0.00 | 0.00 | 1 | 1011.5 |
| 20260503032234 | 52 | 0 | 9.0 | 26.0 | 0.00 | 0.00 | 0.00 | 1 | 1011.4 |
| 20260503031735 | 52 | 73 | 10.0 | 26.0 | 0.00 | 0.00 | 0.00 | 1 | 1011.3 |
| 20260503030947 | 52 | 282 | 12.0 | 23.0 | 0.00 | 0.00 | 0.00 | 1 | 1011.2 |
| 20260503030524 | 52 | 52 | 10.0 | 26.0 | 0.00 | 0.00 | 0.00 | 1 | 1011.1 |
| 20260503030511 | 52 | 288 | 6.0 | 26.0 | 0.00 | 0.00 | 0.00 | 1 | 1011.1 |
| 20260503025446 | 53 | 286 | 9.0 | 28.0 | 0.00 | 0.00 | 0.00 | 1 | 1011.1 |
| 20260503024947 | 53 | 330 | 8.0 | 28.0 | 0.00 | 0.00 | 0.00 | 1 | 1011.1 |
| 20260503024447 | 53 | 282 | 10.0 | 24.0 | 0.00 | 0.00 | 0.00 | 1 | 1011.1 |
| 20260503023947 | 53 | 307 | 9.0 | 24.0 | 0.00 | 0.00 | 0.00 | 1 | 1011.0 |
| 20260503023445 | 53 | 6 | 9.0 | 22.0 | 0.00 | 0.00 | 0.00 | 1 | 1011.0 |
| 20260503022945 | 53 | 269 | 8.0 | 21.0 | 0.00 | 0.00 | 0.00 | 1 | 1011.2 |
| 20260503022445 | 53 | 286 | 7.0 | 18.0 | 0.00 | 0.00 | 0.00 | 1 | 1011.2 |
| 20260503021946 | 53 | 283 | 4.0 | 27.0 | 0.00 | 0.00 | 0.00 | 1 | 1011.1 |
| 20260503021445 | 53 | 296 | 6.0 | 27.0 | 0.00 | 0.00 | 0.00 | 1 | 1011.1 |
| 20260503020947 | 53 | 73 | 9.0 | 23.0 | 0.00 | 0.00 | 0.00 | 1 | 1011.2 |
| 20260503020445 | 53 | 258 | 7.0 | 22.0 | 0.00 | 0.00 | 0.00 | 1 | 1011.2 |
| 20260503020233 | 53 | 266 | 12.0 | 26.0 | 0.00 | 0.00 | 0.00 | 1 | 1011.3 |
| 20260503015445 | 53 | 248 | 5.0 | 26.0 | 0.00 | 0.00 | 0.00 | 1 | 1011.3 |
| 20260503014945 | 53 | 343 | 9.0 | 23.0 | 0.00 | 0.00 | 0.00 | 1 | 1011.3 |
| 20260503014733 | 54 | 0 | 8.0 | 23.0 | 0.00 | 0.00 | 0.00 | 1 | 1011.3 |
| 20260503013945 | 54 | 10 | 5.0 | 22.0 | 0.00 | 0.00 | 0.00 | 1 | 1011.2 |
| 20260503013444 | 54 | 0 | 6.0 | 22.0 | 0.00 | 0.00 | 0.00 | 1 | 1011.3 |
| 20260503012945 | 54 | 340 | 5.0 | 23.0 | 0.00 | 0.00 | 0.00 | 1 | 1011.4 |
| 20260503012446 | 54 | 271 | 9.0 | 23.0 | 0.00 | 0.00 | 0.00 | 1 | 1011.4 |
| 20260503011944 | 54 | 75 | 8.0 | 22.0 | 0.00 | 0.00 | 0.00 | 1 | 1011.6 |
| 20260503011446 | 54 | 0 | 6.0 | 22.0 | 0.00 | 0.00 | 0.00 | 1 | 1011.5 |
| 20260503011232 | 54 | 83 | 6.0 | 20.0 | 0.00 | 0.00 | 0.00 | 1 | 1011.6 |
| 20260503010444 | 54 | 283 | 5.0 | 21.0 | 0.00 | 0.00 | 0.00 | 1 | 1011.5 |
| 20260503005945 | 54 | 92 | 6.0 | 22.0 | 0.00 | 0.00 | 0.00 | 1 | 1011.4 |
| 20260503005443 | 54 | 259 | 9.0 | 22.0 | 0.00 | 0.00 | 0.00 | 1 | 1011.6 |
| 20260503004943 | 54 | 293 | 10.0 | 21.0 | 0.00 | 0.00 | 0.00 | 1 | 1011.5 |
| 20260503004444 | 55 | 16 | 6.0 | 20.0 | 0.00 | 0.00 | 0.00 | 1 | 1011.5 |
| 20260503003945 | 55 | 199 | 9.0 | 24.0 | 0.00 | 0.00 | 0.00 | 1 | 1011.5 |
| 20260503003445 | 55 | 271 | 10.0 | 24.0 | 0.00 | 0.00 | 0.00 | 1 | 1011.7 |
| 20260503002944 | 55 | 278 | 9.0 | 21.0 | 0.00 | 0.00 | 0.00 | 1 | 1011.7 |
| 20260503002444 | 55 | 0 | 7.0 | 21.0 | 0.00 | 0.00 | 0.00 | 1 | 1011.6 |
| 20260503001943 | 55 | 300 | 6.0 | 21.0 | 0.00 | 0.00 | 0.00 | 1 | 1011.7 |
| 20260503001444 | 55 | 275 | 7.0 | 24.0 | 0.00 | 0.00 | 0.00 | 1 | 1011.7 |
| 20260503000944 | 55 | 286 | 14.0 | 24.0 | 0.00 | 0.00 | 0.00 | 1 | 1011.8 |
| 20260503000442 | 55 | 353 | 8.0 | 21.0 | 0.00 | 0.00 | 0.00 | 1 | 1011.8 |
| 20260502235943 | 55 | 250 | 9.0 | 21.0 | 0.00 | 0.00 | 0.00 | 1 | 1011.8 |
| 20260502235443 | 55 | 0 | 5.0 | 26.0 | 0.00 | 0.00 | 0.00 | 1 | 1011.8 |
| 20260502234942 | 55 | 243 | 13.0 | 27.0 | 0.00 | 0.00 | 0.00 | 1 | 1011.8 |
| 20260502234443 | 56 | 271 | 11.0 | 27.0 | 0.00 | 0.00 | 0.00 | 1 | 1011.9 |
| 20260502233943 | 56 | 248 | 12.0 | 24.0 | 0.00 | 0.00 | 0.00 | 1 | 1011.9 |
| 20260502233728 | 55 | 34 | 4.0 | 26.0 | 0.00 | 0.00 | 0.00 | 1 | 1011.9 |
| 20260502232942 | 55 | 314 | 9.0 | 26.0 | 0.00 | 0.00 | 0.00 | 1 | 1012.0 |
| 20260502232442 | 55 | 202 | 13.0 | 22.0 | 0.00 | 0.00 | 0.00 | 1 | 1012.0 |
| 20260502231940 | 56 | 0 | 6.0 | 22.0 | 0.00 | 0.00 | 0.00 | 1 | 1012.1 |
| 20260502231722 | 55 | 281 | 7.0 | 24.0 | 0.00 | 0.00 | 0.00 | 1 | 1012.2 |
| 20260502230940 | 55 | 313 | 12.0 | 24.0 | 0.00 | 0.00 | 0.00 | 1 | 1012.3 |
| 20260502230441 | 55 | 97 | 9.0 | 24.0 | 0.00 | 0.00 | 0.00 | 1 | 1012.3 |
| 20260502225940 | 55 | 250 | 11.0 | 26.0 | 0.00 | 0.00 | 0.00 | 1 | 1012.4 |
| 20260502225441 | 56 | 0 | 8.0 | 26.0 | 0.00 | 0.00 | 0.00 | 1 | 1012.6 |
| 20260502224941 | 56 | 241 | 10.0 | 24.0 | 0.00 | 0.00 | 0.00 | 1 | 1012.5 |
| 20260502224440 | 56 | 34 | 7.0 | 24.0 | 0.00 | 0.00 | 0.00 | 1 | 1012.6 |
| 20260502223939 | 57 | 233 | 8.0 | 18.0 | 0.00 | 0.00 | 0.00 | 1 | 1012.8 |
| 20260502223439 | 56 | 300 | 5.0 | 19.0 | 0.00 | 0.00 | 0.00 | 1 | 1012.8 |
| 20260502222939 | 56 | 245 | 9.0 | 22.0 | 0.00 | 0.00 | 0.00 | 1 | 1012.8 |
| 20260502222439 | 56 | 241 | 6.0 | 24.0 | 0.00 | 0.00 | 0.00 | 1 | 1012.9 |
| 20260502221940 | 56 | 254 | 11.0 | 24.0 | 0.00 | 0.00 | 0.00 | 1 | 1013.1 |
| 20260502221439 | 56 | 259 | 6.0 | 24.0 | 0.00 | 0.00 | 0.00 | 1 | 1013.1 |
| 20260502220938 | 56 | 247 | 8.0 | 24.0 | 0.00 | 0.00 | 0.00 | 1 | 1013.2 |
| 20260502220439 | 56 | 0 | 5.0 | 17.0 | 0.00 | 0.00 | 0.00 | 1 | 1013.2 |
| 20260502215938 | 56 | 305 | 5.0 | 16.0 | 0.00 | 0.00 | 0.00 | 1 | 1013.2 |
| 20260502215438 | 56 | 0 | 3.0 | 18.0 | 0.00 | 0.00 | 0.00 | 1 | 1013.2 |
| 20260502214939 | 56 | 237 | 11.0 | 18.0 | 0.00 | 0.00 | 0.00 | 1 | 1013.2 |
| 20260502214438 | 56 | 282 | 6.0 | 18.0 | 0.00 | 0.00 | 0.00 | 1 | 1013.2 |
| 20260502213939 | 56 | 238 | 10.0 | 21.0 | 0.00 | 0.00 | 0.00 | 1 | 1013.3 |
| 20260502213727 | 56 | 262 | 10.0 | 23.0 | 0.00 | 0.00 | 0.00 | 1 | 1013.2 |
| 20260502213225 | 56 | 269 | 9.0 | 23.0 | 0.00 | 0.00 | 0.00 | 1 | 1013.2 |
| 20260502212724 | 57 | 286 | 6.0 | 17.0 | 0.00 | 0.00 | 0.00 | 1 | 1013.3 |
| 20260502211937 | 56 | 278 | 5.0 | 24.0 | 0.00 | 0.00 | 0.00 | 1 | 1013.3 |
| 20260502211438 | 56 | 276 | 9.0 | 24.0 | 0.00 | 0.00 | 0.00 | 1 | 1013.2 |
| 20260502211226 | 56 | 27 | 10.0 | 28.0 | 0.00 | 0.00 | 0.00 | 1 | 1013.4 |
| 20260502210438 | 56 | 313 | 9.0 | 28.0 | 0.00 | 0.00 | 0.00 | 1 | 1013.4 |
| 20260502205937 | 56 | 0 | 4.0 | 28.0 | 0.00 | 0.00 | 0.00 | 1 | 1013.5 |
| 20260502205438 | 56 | 265 | 11.0 | 28.0 | 0.00 | 0.00 | 0.00 | 1 | 1013.6 |
| 20260502204938 | 56 | 202 | 6.0 | 20.0 | 0.00 | 0.00 | 0.00 | 1 | 1013.6 |
| 20260502204437 | 56 | 333 | 6.0 | 21.0 | 0.00 | 0.00 | 0.00 | 1 | 1013.6 |
| 20260502203937 | 56 | 186 | 9.0 | 22.0 | 0.00 | 0.00 | 0.00 | 1 | 1013.7 |
| 20260502203438 | 56 | 251 | 12.0 | 22.0 | 0.00 | 0.00 | 0.00 | 1 | 1013.6 |
| 20260502202936 | 57 | 298 | 10.0 | 19.0 | 0.00 | 0.00 | 0.00 | 1 | 1013.7 |
| 20260502202436 | 56 | 23 | 5.0 | 22.0 | 0.00 | 0.00 | 0.00 | 1 | 1013.6 |
| 20260502201937 | 56 | 314 | 11.0 | 22.0 | 0.00 | 0.00 | 0.00 | 1 | 1013.8 |
| 20260502201437 | 56 | 271 | 7.0 | 22.0 | 0.00 | 0.00 | 0.00 | 1 | 1013.8 |
| 20260502200937 | 56 | 37 | 8.0 | 22.0 | 0.00 | 0.00 | 0.00 | 1 | 1013.7 |
| 20260502200437 | 56 | 298 | 6.0 | 22.0 | 0.00 | 0.00 | 0.00 | 1 | 1013.8 |
| 20260502195936 | 56 | 293 | 7.0 | 22.0 | 0.00 | 0.00 | 0.00 | 1 | 1013.9 |
| 20260502195437 | 56 | 59 | 6.0 | 20.0 | 0.00 | 0.00 | 0.00 | 1 | 1013.9 |
| 20260502194936 | 56 | 245 | 8.0 | 23.0 | 0.00 | 0.00 | 0.00 | 1 | 1013.9 |
| 20260502194436 | 56 | 0 | 10.0 | 23.0 | 0.00 | 0.00 | 0.00 | 1 | 1013.9 |
| 20260502193935 | 56 | 279 | 7.0 | 14.0 | 0.00 | 0.00 | 0.00 | 1 | 1013.9 |
| 20260502193435 | 56 | 290 | 5.0 | 19.0 | 0.00 | 0.00 | 0.00 | 1 | 1013.9 |
| 20260502192935 | 56 | 0 | 6.0 | 19.0 | 0.00 | 0.00 | 0.00 | 1 | 1013.9 |
| 20260502192436 | 56 | 0 | 6.0 | 15.0 | 0.00 | 0.00 | 0.00 | 1 | 1013.9 |
| 20260502191935 | 56 | 323 | 5.0 | 15.0 | 0.00 | 0.00 | 0.00 | 1 | 1013.9 |
| 20260502191435 | 56 | 266 | 4.0 | 16.0 | 0.00 | 0.00 | 0.00 | 1 | 1014.0 |